Location: Basse Occidentale du Courleau
(48.3833°N, 4.8333°W)
Time: 19:56:23
(UTC+00:00)

NOSS 3-4 (C) - Pass Details

Date: 05 July 2020
Orbit: 891 x 1321 km, 63.4° (Epoch: 12 July)

Event Time Altitude Azimuth Distance (km) Brightness Sun altitude
Rises 22:03:29 0° 317° (NW) 3,756 8.5 -12.3°
Reaches altitude 10° 22:06:04 10° 323° (NW) 2,860 7.5 -12.5°
Maximum altitude 22:12:44 54° 40° (NE) 1,344 4.3 -13.1°
Enters shadow 22:19:54 11° 117° (ESE) 3,085 5.6 -13.7°
